STARLINK-4740 (53871 NORAD) Tracking and Keplerian Element Data

This shows tracking and keplerian element data for the satellite.

Feedback or suggestion? Click here.




ElementValue
Catalog53871
NameSTARLINK-4740
Epoch Orbit1054
Epoch Day325.33334491
Epoch Year2022
RAAN305.541
Inclination53.2144
Eccentricity0.0004122
Argument of Perigee4.5904
Mean Anonmoly72.6504
Mean Motion15.73178173
Decay Rate0.00022216
L11 53871U 22114BF 22325.33334491 .00022216 00000+0 16240-3 0 9996
L22 53871 53.2144 305.5410 0004122 4.5904 72.6504 15.73178173 10541



Live tracking and technical data element details for STARLINK-4740 (NORAD 53871). STARLINK-4740 can be tracked NOW for your location showing map with azimuth and elevation plus other details from your city location.







IsCatalogInMostPopularTable: catalog: 53871, numindb: 3
Update: records affected: 1



GetName: 53871 STARLINK-4740

Hit Count: updated at: Thu, 08 Dec 2022 10:23:15 GMT